Aberdeen, SD

7:17 AM CST on December 03, 2016 (GMT -0600)
Aberdeen Regional

Weather History for KABR - November, 2012

Change the Weather History Date:

Tuesday, November 27, 2012

  Actual Average Record
Temperature  
Mean Temperature 25 °F 23 °F  
Max Temperature 39 °F 33 °F 70 °F (1914)
Min Temperature 10 °F 13 °F -18 °F (1985)
Degree Days  
Heating Degree Days 40 42  
Month to date heating degree days 891 944  
Since 1 July heating degree days 1773 1835  
Cooling Degree Days 0 0  
Month to date cooling degree days 0 0  
Year to date cooling degree days 764 525  
Moisture  
Dew Point 13 °F    
Average Humidity 73    
Maximum Humidity 92    
Minimum Humidity 54    
Precipitation  
Precipitation 0.00 in 0.02 in 2.00 in (1894)
Month to date precipitation 0.38 0.68  
Year to date precipitation 13.89 21.15  
Snow  
Snow 0.00 in - - ()
Month to date snowfall 0.6  
Since 1 July snowfall 0.6  
Snow Depth 0.00 in    
Sea Level Pressure  
Sea Level Pressure 30.24 in    
Wind  
Wind Speed 6 mph (SW)    
Max Wind Speed 13 mph    
Max Gust Speed 16 mph    
Visibility 6 miles    
Events Fog    
T = Trace of Precipitation, MM = Missing Value Source: NWS Daily Summary

Daily Weather History Graph

Daily Weather History Graph

Search for Another Location

Airport or City:

Trip Planner

Search our weather history database for the weather conditions in past years. The results will help you decide how hot, cold, wet, or windy it might be!

Date:

Astronomy

Nov. 27, 2012 Rise Set
Actual Time 7:49 AM CST 4:53 PM CST
Civil Twilight 7:15 AM CST 5:26 PM CST
Nautical Twilight 6:39 AM CST 6:03 PM CST
Astronomical Twilight 6:03 AM CST 6:39 PM CST
Moon 4:26 PM CST (11/27) 6:54 AM CST (11/27)
Length of Visible Light 10h 10m
Length of Day
9h 04m
Waxing Gibbous, 99% of the Moon is Illuminated
Nov 27
Waxing Gibbous
Nov 28
Full
Dec 6
Last Quarter
Dec 13
New
Dec 19
First Quarter

Hourly Weather History & Observations

Time (CST) Temp. Windchill Dew Point Humidity Pressure Visibility Wind Dir Wind Speed Gust Speed Precip Events Conditions
12:53 AM 19.0 °F 7.5 °F 10.9 °F 71% 30.28 in 10.0 mi South 10.4 mph - N/A   Clear
1:53 AM 17.1 °F 5.8 °F 10.0 °F 74% 30.26 in 10.0 mi South 9.2 mph - N/A   Clear
2:53 AM 15.1 °F 3.3 °F 10.0 °F 80% 30.24 in 10.0 mi South 9.2 mph - N/A   Clear
3:53 AM 15.1 °F 1.8 °F 10.0 °F 80% 30.22 in 10.0 mi South 11.5 mph - N/A   Clear
4:53 AM 14.0 °F 5.1 °F 10.0 °F 84% 30.20 in 10.0 mi SSW 5.8 mph - N/A   Clear
5:53 AM 12.2 °F 6.1 °F 10.4 °F 92% 30.12 in 10.0 mi SSW 3.5 mph - N/A   Clear
6:53 AM 16.0 °F 4.4 °F 12.0 °F 84% 30.18 in 10.0 mi South 9.2 mph - N/A   Clear
7:53 AM 16.0 °F 6.3 °F 12.0 °F 84% 30.18 in 10.0 mi South 6.9 mph - N/A   Clear
8:53 AM 19.0 °F 10.0 °F 14.0 °F 81% 30.18 in 10.0 mi South 6.9 mph - N/A   Clear
9:53 AM 21.0 °F 11.4 °F 16.0 °F 81% 30.18 in 10.0 mi SSW 8.1 mph - N/A   Clear
10:53 AM 26.1 °F 19.4 °F 18.0 °F 71% 30.19 in 10.0 mi WNW 5.8 mph - N/A   Clear
11:53 AM 30.9 °F 22.8 °F 19.9 °F 64% 30.18 in 10.0 mi North 9.2 mph - N/A   Clear
12:53 PM 33.8 °F 28.6 °F 21.2 °F 60% 30.11 in 10.0 mi North 5.8 mph - N/A   Clear
1:53 PM 37.4 °F 31.4 °F 23.0 °F 56% 30.11 in 10.0 mi NNW 8.1 mph - N/A   Clear
2:53 PM 37.9 °F 31.5 °F 23.0 °F 55% 30.18 in 10.0 mi North 9.2 mph - N/A   Clear
3:53 PM 35.1 °F 28.6 °F 23.0 °F 61% 30.20 in 10.0 mi NNE 8.1 mph - N/A   Clear
4:53 PM 28.9 °F 21.9 °F 21.0 °F 72% 30.24 in 10.0 mi North 6.9 mph - N/A   Clear
5:53 PM 25.0 °F 19.3 °F 19.0 °F 78% 30.26 in 10.0 mi NNW 4.6 mph - N/A   Clear
6:53 PM 21.9 °F 15.7 °F 17.1 °F 82% 30.28 in 10.0 mi North 4.6 mph - N/A   Clear
7:53 PM 19.0 °F - 16.0 °F 88% 30.30 in 6.0 mi Calm Calm - N/A   Clear
8:53 PM 15.1 °F - 12.9 °F 91% 30.32 in 6.0 mi Calm Calm - N/A   Clear
9:02 PM 10.4 °F - 8.6 °F 92% 30.24 in 1.8 mi Calm Calm - N/A   Clear
9:05 PM 10.4 °F 4.0 °F 8.6 °F 92% 30.25 in 0.8 mi South 3.5 mph - N/A   Clear
9:15 PM 15.8 °F - 10.4 °F 79% 30.25 in 2.0 mi Calm Calm - N/A   Clear
9:23 PM 15.8 °F - 12.2 °F 86% 30.25 in 3.0 mi Calm Calm - N/A   Clear
9:27 PM 15.8 °F 10.2 °F 12.2 °F 86% 30.25 in 1.5 mi South 3.5 mph - N/A   Clear
9:31 PM 12.2 °F 6.1 °F 10.4 °F 92% 30.25 in 0.8 mi South 3.5 mph - N/A   Clear
9:42 PM 12.2 °F - 10.4 °F 92% 30.25 in 1.5 mi Calm Calm - N/A   Clear
9:49 PM 12.2 °F - 8.6 °F 85% 30.25 in 1.2 mi Calm Calm - N/A   Partly Cloudy
9:51 PM 12.2 °F - 8.6 °F 85% 30.25 in 0.8 mi Calm Calm - N/A   Mist
9:53 PM 12.0 °F 5.9 °F 9.0 °F 88% 30.33 in 0.5 mi SSW 3.5 mph - N/A Fog Light Freezing Fog
10:01 PM 12.2 °F - 8.6 °F 85% 30.26 in 0.2 mi Calm Calm - N/A Fog Light Freezing Fog
10:14 PM 10.4 °F 4.0 °F 8.6 °F 92% 30.26 in 1.0 mi South 3.5 mph - N/A   Mist
10:26 PM 10.4 °F - 6.8 °F 85% 30.26 in 0.5 mi Calm Calm - N/A Fog Light Freezing Fog
10:34 PM 12.2 °F - 8.6 °F 85% 30.26 in 0.2 mi Calm Calm - N/A Fog Light Freezing Fog
10:53 PM 10.0 °F 3.6 °F 7.0 °F 87% 30.34 in 0.2 mi West 3.5 mph - N/A Fog Light Freezing Fog
11:01 PM 10.4 °F 2.2 °F 8.6 °F 92% 30.27 in 0.2 mi WNW 4.6 mph - N/A Fog Light Freezing Fog
11:37 PM 12.2 °F 4.3 °F 8.6 °F 85% 30.27 in 1.0 mi NW 4.6 mph - N/A   Mist
11:40 PM 14.0 °F 6.5 °F 10.4 °F 86% 30.28 in 1.5 mi NNW 4.6 mph - N/A   Clear
11:48 PM 14.0 °F - 10.4 °F 86% 30.27 in 2.0 mi Calm Calm - N/A   Clear
11:53 PM 12.0 °F - 9.0 °F 88% 30.34 in 2.0 mi Calm Calm - N/A   Clear